Regional Weather Roundup
Issued by NWS

Home | Current Version | Previous Version | Text Only | Print | Product List | Glossary Off
Versions: 1 2 3 4 5 6 7 8 9 10 11 12 13 14 15 16 17 18 19 20 21 22 23 24 25 26 27 28 29 30 31 32 33 34 35 36 37 38 39 40 41 42 43 44 45 46 47 48 49 50

000
ASUS43 KFSD 221802
RWRSD

WEATHER ROUNDUP FOR SOUTH DAKOTA
NATIONAL WEATHER SERVICE SIOUX FALLS SD
1200 PM CST THU FEB 22 2018

NOTE: "FAIR" INDICATES FEW OR NO CLOUDS BELOW 12,000 FEET WITH NO
SIGNIFICANT WEATHER AND/OR OBSTRUCTIONS TO VISIBILITY.


SDZ001>005-009-010-012>017-221900-
NORTHWEST AND NORTH CENTRAL SOUTH DAKOTA

CITY           SKY/WX    TMP DP  RH WIND       PRES   REMARKS
BUFFALO          N/A     -2  -9  72 CALM      30.06S
FAITH            N/A      0  -3  87 CALM      30.18F
MOBRIDGE       SUNNY     10   3  73 CALM      30.26F
$$

SDZ012>016-024>037-041>051-057-063-072>074-221900-
SOUTHWEST AND SOUTH CENTRAL SOUTH DAKOTA

CITY           SKY/WX    TMP DP  RH WIND       PRES   REMARKS
RAPID CTY ARPT MOSUNNY   10   3  73 NW3       30.11F
PIERRE         CLOUDY    18  14  84 E10       30.28S WCI   6
CUSTER         PTSUNNY   27   5  39 E8        29.96F WCI  19
PHILIP         CLOUDY    12   6  77 CALM      30.22S
PINE RIDGE     FLURRIES  23  17  78 SW9       30.11F WCI  13
SPEARFISH        N/A     19   7  58 CALM      30.07R
WINNER         LGT SNOW  24  19  81 S10       30.26F WCI  14
$$

SDZ004>011-016>023-039-040-221900-
NORTHEAST SOUTH DAKOTA

CITY           SKY/WX    TMP DP  RH WIND       PRES   REMARKS
ABERDEEN       CLOUDY    23  16  74 S14       30.38F WCI  11
WATERTOWN      CLOUDY    23  18  81 S9        30.36F WCI  13
BROOKINGS      PTSUNNY   23  17  78 SE10      30.39S WCI  12
SISSETON         N/A     19  12  74 S13       30.42F WCI   6
$$

SDZ017-020-022-023-036>040-048>070-221900-
SOUTHEAST SOUTH DAKOTA

CITY           SKY/WX    TMP DP  RH WIND       PRES   REMARKS
SIOUX FALLS    CLOUDY    23  17  78 E9        30.38F WCI  13
HURON          CLOUDY    23  17  78 SE10      30.37F WCI  12
CHAMBERLAIN    LGT SNOW  24  22  92 E9        30.31F WCI  14
MITCHELL       FLURRIES  22  18  85 S12       30.39F WCI  10
YANKTON        LGT SNOW  22  18  85 E8        30.37F FOG     WCI  12
$$

ABBREVIATIONS USED IN REMARKS
   TC - TEMPERATURE IN CELSIUS
  WCI - WIND CHILL INDEX
   HX - HEAT INDEX
  VSB - VISIBILITY




USA.gov is the U.S. government's official web portal to all federal, state and local government web resources and services.